Pope Field Airport, NC

2:04 AM EDT on March 26, 2017 (GMT -0400)
Pope Field Airport

Weather History for KPOB - March, 2013

Change the Weather History Date:

Wednesday, March 27, 2013

  Actual Average Record
Temperature  
Mean Temperature 42 °F -  
Max Temperature 54 °F 67 °F 84 °F (1991)
Min Temperature 31 °F 45 °F 23 °F (2014)
Degree Days  
Heating Degree Days 23    
Moisture  
Dew Point 23 °F    
Average Humidity 43    
Maximum Humidity 77    
Minimum Humidity 28    
Precipitation  
Precipitation 0.00 in - - ()
Sea Level Pressure  
Sea Level Pressure 30.19 in    
Wind  
Wind Speed 9 mph (NW)    
Max Wind Speed 18 mph    
Max Gust Speed 26 mph    
Visibility 10 miles    
Events      
Averages and records for this station are not official NWS values.
T = Trace of Precipitation, MM = Missing Value Source: NWS Daily Summary

Daily Weather History Graph

Daily Weather History Graph

Search for Another Location

Airport or City:

Trip Planner

Search our weather history database for the weather conditions in past years. The results will help you decide how hot, cold, wet, or windy it might be!

Date:

Astronomy

Mar. 27, 2013 Rise Set
Actual Time 7:09 AM EDT 7:33 PM EDT
Civil Twilight 6:44 AM EDT 7:59 PM EDT
Nautical Twilight 6:14 AM EDT 8:28 PM EDT
Astronomical Twilight 5:44 AM EDT 8:59 PM EDT
Moon 8:12 PM EDT (3/27) 7:01 AM EDT (3/27)
Length of Visible Light 13h 14m
Length of Day
12h 24m
Full, 100% of the Moon is Illuminated
Mar 27
Full
Apr 3
Last Quarter
Apr 10
New
Apr 18
First Quarter
Apr 25
Full

Hourly Weather History & Observations

Time (EDT) Temp. Windchill Dew Point Humidity Pressure Visibility Wind Dir Wind Speed Gust Speed Precip Events Conditions
12:58 AM 38.8 °F 33.8 °F 25.3 °F 58% 30.15 in 10.0 mi WNW 6.9 mph - N/A   Clear
1:58 AM 37.6 °F 34.0 °F 25.2 °F 61% 30.15 in 10.0 mi WNW 4.6 mph - N/A   Clear
2:58 AM 37.6 °F 33.1 °F 24.6 °F 60% 30.14 in 10.0 mi WNW 5.8 mph - N/A   Clear
3:58 AM 36.1 °F 29.9 °F 24.8 °F 63% 30.14 in 10.0 mi WNW 8.1 mph - N/A   Clear
4:58 AM 34.3 °F 30.2 °F 24.6 °F 68% 30.16 in 10.0 mi WNW 4.6 mph - N/A   Clear
5:58 AM 31.5 °F 26.8 °F 24.4 °F 75% 30.17 in 10.0 mi West 4.6 mph - N/A   Clear
6:58 AM 31.1 °F 26.4 °F 24.8 °F 77% 30.19 in 10.0 mi West 4.6 mph - N/A   Clear
7:58 AM 32.9 °F 27.5 °F 25.7 °F 75% 30.22 in 10.0 mi West 5.8 mph - N/A   Clear
8:58 AM 40.5 °F 35.1 °F 26.4 °F 57% 30.24 in 10.0 mi NW 8.1 mph - N/A   Clear
9:58 AM 44.8 °F 38.7 °F 21.9 °F 40% 30.23 in 10.0 mi North 12.7 mph 21.9 mph N/A   Clear
10:35 AM 46.4 °F 40.4 °F 23.0 °F 40% 30.22 in 10.0 mi North 13.8 mph 20.7 mph N/A   Clear
10:58 AM 46.4 °F 40.7 °F 21.0 °F 37% 30.22 in 10.0 mi NW 12.7 mph 23.0 mph N/A   Clear
11:18 AM 48.2 °F - 21.2 °F 34% 30.21 in 10.0 mi WNW 13.8 mph 21.9 mph N/A   Clear
11:58 AM 48.9 °F - 22.1 °F 35% 30.22 in 10.0 mi NNW 10.4 mph 18.4 mph N/A   Clear
12:58 PM 51.1 °F - 22.1 °F 32% 30.20 in 10.0 mi WSW 9.2 mph 19.6 mph N/A   Clear
1:23 PM 51.8 °F - 21.2 °F 30% 30.18 in 10.0 mi NW 15.0 mph 20.7 mph N/A   Partly Cloudy
1:37 PM 51.8 °F - 21.2 °F 30% 30.18 in 10.0 mi NW 11.5 mph 21.9 mph N/A   Clear
1:42 PM 51.8 °F - 21.2 °F 30% 30.18 in 10.0 mi NNW 12.7 mph 21.9 mph N/A   Clear
1:43 PM 51.8 °F - 21.2 °F 30% 30.18 in 10.0 mi NNW 12.7 mph 21.9 mph N/A   Clear
1:58 PM 52.5 °F - 21.0 °F 29% 30.18 in 10.0 mi NNW 13.8 mph 26.5 mph N/A   Clear
2:01 PM 51.8 °F - 21.2 °F 30% 30.17 in 10.0 mi WNW 13.8 mph 25.3 mph N/A   Clear
2:58 PM 53.1 °F - 21.9 °F 30% 30.16 in 10.0 mi NW 12.7 mph 24.2 mph N/A   Clear
3:10 PM 53.6 °F - 21.2 °F 28% 30.15 in 10.0 mi NW 18.4 mph 25.3 mph N/A   Clear
3:58 PM 53.2 °F - 22.8 °F 31% 30.17 in 10.0 mi WNW 13.8 mph 20.7 mph N/A   Partly Cloudy
4:58 PM 53.2 °F - 21.4 °F 29% 30.17 in 10.0 mi NW 13.8 mph 23.0 mph N/A   Clear
5:28 PM 51.8 °F - 21.2 °F 30% 30.15 in 10.0 mi NNW 16.1 mph 20.7 mph N/A   Clear
5:58 PM 52.3 °F - 20.7 °F 29% 30.17 in 10.0 mi NW 9.2 mph 19.6 mph N/A   Clear
6:26 PM 51.8 °F - 21.2 °F 30% 30.16 in 10.0 mi NNW 12.7 mph - N/A   Clear
6:58 PM 50.0 °F - 19.9 °F 31% 30.19 in 10.0 mi NNW 12.7 mph 16.1 mph N/A   Clear
7:58 PM 46.9 °F - 21.4 °F 36% 30.22 in 10.0 mi NW 5.8 mph - N/A   Clear
8:58 PM 44.4 °F 40.5 °F 22.1 °F 41% 30.22 in 10.0 mi NW 6.9 mph - N/A   Clear
9:58 PM 42.6 °F - 22.5 °F 45% 30.25 in 10.0 mi North 1.2 mph - N/A   Clear
10:58 PM 38.3 °F - 24.8 °F 58% 30.25 in 10.0 mi Calm Calm - N/A   Clear
11:58 PM 36.5 °F - 24.1 °F 61% 30.25 in 10.0 mi WNW 2.3 mph - N/A   Clear